Wind_Speed
98 104 94 68 74 83 81 81 78 77 77 69 67 69 73 73 79 83 86 85 89 94 107 123 116 110 107 105 107 106 104 102 102 98 97 95 94 96 97 97 96 95 95 95
113 98 90 89 88 87 88 87 81 82 80 72 71 66 73 71 72 74 77 80 83 88 89 98 117 117 115 112 109 109 106 105 104 106 104 102 103 101 102 102 104 102 99 100
113 96 101 93 86 89 91 90 85 78 79 75 73 72 70 70 71 70 68 68 74 79 84 86 86 100 115 115 112 114 112 109 109 107 108 110 109 108 106 107 107 106 106 107
106 104 100 98 94 86 89 89 89 83 79 75 77 74 70 67 68 67 67 64 62 66 77 80 85 86 90 99 105 110 112 112 110 111 112 112 111 108 109 110 111 111 114 113
81 98 96 87 78 82 85 96 91 86 81 81 80 82 69 69 65 65 65 64 63 60 60 70 77 77 80 84 92 98 103 106 106 107 108 108 110 113 114 112 114 113 117 117
70 87 89 93 87 82 91 99 94 89 88 86 80 75 76 68 58 64 66 64 63 62 58 58 60 64 67 70 75 80 82 88 94 99 99 99 99 100 102 106 110 112 114 117
63 82 86 91 84 91 95 97 100 97 96 73 70 76 76 75 68 60 63 65 62 59 60 56 52 55 58 60 63 70 78 82 85 91 93 93 97 99 101 103 105 106 109 110
61 65 77 86 93 94 91 91 92 78 60 62 74 76 86 82 68 66 62 61 58 62 59 58 54 57 57 56 56 60 62 68 74 78 81 81 81 87 89 91 94 95 96 98
51 59 71 89 92 94 91 99 69 71 79 89 84 88 92 75 70 68 59 56 63 54 52 56 58 57 56 55 55 55 58 61 63 66 69 70 73 75 76 78 79 80 81 81
44 51 61 75 87 96 94 77 91 84 87 92 92 89 78 73 75 69 64 63 60 58 54 54 58 59 57 57 59 60 60 61 62 63 64 67 69 71 72 74 75 75 72 72
38 48 58 68 80 85 84 91 93 88 89 90 93 81 77 77 78 77 70 67 65 63 63 62 61 61 59 58 60 59 59 62 61 62 63 65 67 69 69 70 70 69 68 68
31 40 51 63 73 79 84 81 89 91 86 89 94 83 78 74 79 80 78 74 71 69 66 62 59 58 58 60 59 57 57 60 61 62 64 66 69 69 67 65 65 65 64 65
22 30 40 50 64 76 80 81 92 90 91 91 91 82 72 70 77 82 78 75 72 68 66 64 60 59 59 60 58 57 57 59 60 61 64 65 66 64 63 63 62 64 64 63
15 24 30 44 59 67 69 74 83 88 94 93 92 76 74 72 76 77 76 74 70 67 64 61 58 58 57 58 58 58 56 57 59 63 65 65 63 61 61 61 62 63 62 60
13 19 28 37 48 56 73 78 71 80 86 88 87 72 77 75 73 73 75 73 71 68 65 63 61 59 59 60 61 61 60 60 61 63 64 62 61 59 61 60 60 61 57 56
17 12 18 28 40 48 61 72 77 72 78 86 83 81 78 78 76 75 72 72 70 69 67 65 63 62 62 61 61 62 62 62 61 62 61 59 57 59 59 57 59 58 55 56
21 9 8 13 28 37 47 63 70 72 74 74 71 74 78 77 75 72 72 71 69 68 66 64 64 64 63 60 60 61 61 59 60 57 55 54 57 56 57 58 56 56 53 53
15 16 12 12 19 31 41 51 65 71 67 70 74 74 79 74 73 72 69 67 67 65 61 61 62 61 58 57 58 58 58 58 53 50 53 53 54 55 55 54 53 54 54 52
2 13 9 18 27 29 31 44 52 59 67 63 78 76 71 73 69 67 65 64 63 61 62 63 61 59 56 55 53 54 55 50 49 51 52 53 53 52 51 51 50 51 48 46
16 6 14 18 19 9 24 33 45 64 46 65 65 71 72 71 67 65 63 62 61 63 62 61 58 55 53 52 55 54 51 49 51 52 50 50 48 50 49 47 49 48 46 48
29 27 4 12 29 12 11 31 39 52 52 60 58 58 63 72 66 64 60 57 56 57 57 53 52 51 52 53 51 50 50 49 49 47 47 47 48 46 49 47 50 50 52 52
20 43 25 19 30 33 24 30 36 45 43 56 62 66 59 61 63 62 60 55 53 52 51 51 51 51 50 48 49 47 44 44 45 45 46 47 50 50 49 48 50 52 54 54
34 29 28 29 29 22 22 27 29 38 43 47 46 51 56 54 52 50 50 50 51 52 51 49 47 47 47 47 44 42 43 43 42 43 45 49 50 51 50 51 52 52 54 53
27 27 23 24 23 22 26 25 25 26 29 32 34 35 37 39 41 43 45 45 42 41 41 40 40 40 41 39 39 44 44 45 45 47 47 49 52 53 51 52 55 55 55 53
27 28 22 24 24 24 28 24 23 25 28 29 30 31 30 32 35 39 38 38 36 34 34 35 38 42 42 41 43 45 46 47 47 46 46 49 50 50 52 55 58 57 58 53
24 24 21 25 24 28 27 26 27 25 26 27 27 30 30 32 34 33 35 36 39 40 42 44 43 41 42 43 44 47 47 45 43 45 46 47 49 52 54 59 62 62 61 58
Wind_Direction
244 241 235 232 227 227 226 224 224 222 229 229 231 231 235 232 235 234 235 234 232 235 237 235 236 238 239 241 243 245 248 251 255 255 258 258 260 263 264 265 267 268 269 270
238 238 233 226 221 222 224 224 222 221 222 221 228 227 233 234 235 236 236 236 235 231 233 236 238 237 238 240 242 244 248 251 252 255 257 259 261 263 263 264 266 267 267 267
236 235 233 231 225 218 220 223 223 222 219 221 225 226 230 232 235 238 238 236 237 238 233 230 232 237 240 242 243 245 248 250 251 253 257 260 262 262 263 264 266 269 269 269
229 228 230 229 226 217 215 222 223 222 221 219 220 225 225 230 234 237 238 238 235 236 239 237 235 234 235 240 243 245 246 249 251 254 257 258 259 261 262 265 266 265 266 267
222 220 226 225 222 219 210 221 222 222 223 218 219 222 223 226 229 234 239 239 239 238 236 240 240 240 241 241 242 245 247 249 250 253 255 257 259 261 262 263 264 265 266 266
216 214 215 219 221 217 214 218 219 221 222 220 219 221 224 226 228 231 234 236 238 239 238 237 237 240 243 246 248 249 250 252 253 255 258 260 261 262 263 265 266 265 265 266
217 217 216 214 213 218 218 217 218 218 218 217 220 222 223 222 223 225 229 232 237 240 240 242 242 243 245 246 250 253 255 257 260 261 261 263 264 266 267 267 267 269 271 273
214 218 216 213 213 218 219 220 220 220 214 223 225 221 226 222 225 226 226 232 237 238 241 246 248 247 250 253 253 255 258 259 256 258 261 263 264 266 268 270 273 274 274 276
214 213 209 208 214 217 219 222 217 216 212 221 224 221 226 220 218 227 226 227 233 239 243 243 246 249 249 249 252 256 260 265 266 268 270 271 270 271 272 274 276 278 279 279
210 211 210 208 209 213 218 219 220 214 214 220 221 221 222 221 223 226 224 228 232 234 240 245 248 249 249 252 257 259 262 264 266 270 274 276 278 279 281 282 283 285 285 285
208 207 208 208 211 216 214 214 217 215 216 219 224 221 221 218 220 224 225 228 232 235 239 241 243 247 250 252 255 259 261 263 267 269 272 276 278 281 286 286 286 285 288 289
208 208 208 203 203 208 215 215 218 219 213 215 224 220 220 217 220 225 227 225 228 233 238 239 242 244 247 250 252 255 260 262 265 268 273 276 280 284 286 283 283 287 289 289
203 206 207 208 205 202 204 206 211 214 213 220 224 218 218 217 221 224 226 230 232 234 236 237 239 241 243 247 251 253 255 259 264 269 273 277 280 283 284 282 283 286 288 287
187 197 203 204 198 211 209 207 210 211 214 217 222 215 218 219 221 223 226 230 233 233 233 234 236 240 242 244 247 251 256 261 265 269 274 278 282 282 280 280 283 287 287 285
154 184 187 196 199 205 204 209 211 211 214 218 221 212 216 218 221 224 226 228 231 232 231 233 238 241 243 246 250 253 258 262 267 270 275 278 279 278 276 281 284 286 285 287
108 152 181 191 195 199 201 206 204 207 211 215 216 212 215 219 220 223 224 226 229 231 232 234 238 241 245 248 252 257 260 264 268 272 275 278 274 274 279 281 284 284 287 287
74 120 121 181 183 193 199 202 207 202 208 210 216 216 217 220 222 224 227 228 231 232 234 237 240 244 247 251 256 259 262 267 271 273 277 272 271 276 278 281 280 286 289 286
52 16 180 158 167 179 192 200 204 210 207 209 211 215 217 221 222 225 227 229 231 233 236 238 241 246 250 256 260 264 267 269 271 270 268 269 272 276 279 282 281 285 286 289
221 179 186 144 154 189 186 192 200 201 210 207 218 221 222 226 228 228 230 231 233 235 237 239 243 248 253 257 260 264 268 267 266 266 265 269 274 279 280 279 284 289 292 290
135 118 131 143 130 125 178 182 186 173 204 210 218 224 223 224 227 228 229 232 235 236 238 242 246 251 255 259 261 264 264 262 261 264 268 271 276 275 277 283 288 289 290 287
98 54 116 131 115 129 188 167 176 186 192 200 206 211 218 223 224 225 230 234 237 238 242 246 248 252 255 258 260 261 263 260 261 264 267 275 273 272 280 283 287 290 290 291
131 167 172 158 154 176 182 166 173 179 188 200 210 216 222 221 225 229 232 233 239 242 244 245 248 250 252 253 255 258 258 260 263 267 271 269 270 275 278 283 285 287 288 289
171 160 156 169 175 172 166 164 176 183 192 201 204 208 217 221 226 228 234 237 240 243 246 245 244 246 246 250 251 255 257 260 264 267 267 270 271 275 278 282 285 286 286 287
157 149 159 167 166 166 160 165 172 179 187 194 204 211 217 221 224 228 232 235 237 238 241 241 240 237 237 243 248 246 254 260 267 269 266 268 271 277 279 283 287 287 285 285
154 156 153 143 152 154 168 166 164 171 175 183 191 196 203 211 216 220 224 228 230 227 226 229 230 235 241 246 248 253 256 264 266 264 265 268 275 280 284 286 287 290 292 292
147 143 153 147 157 164 169 171 169 171 171 174 182 190 196 206 213 220 221 223 223 225 226 229 233 239 245 247 251 256 261 262 259 262 267 272 277 281 285 287 290 294 297 301
Height
10499 10502 10530 10582 10599 10603 10613 10620 10634 10643 10648 10665 10674 10680 10681 10693 10698 10710 10719 10734 10745 10753 10759 10768 10778 10790 10799 10806 10807 10813 10815 10824 10827 10830 10831 10833 10836 10837 10837 10839 10841 10844 10842 10842
10445 10479 10533 10545 10558 10576 10587 10596 10613 10621 10631 10653 10656 10667 10667 10681 10688 10695 10706 10719 10728 10739 10745 10752 10766 10769 10783 10785 10793 10799 10805 10808 10813 10812 10814 10816 10819 10823 10825 10824 10821 10825 10826 10824
10426 10483 10498 10518 10536 10550 10564 10581 10596 10610 10622 10634 10644 10649 10658 10672 10677 10685 10695 10706 10717 10723 10731 10741 10745 10754 10766 10770 10778 10783 10789 10792 10796 10799 10798 10800 10803 10808 10809 10810 10810 10808 10807 10806
10407 10448 10466 10484 10505 10531 10550 10569 10577 10591 10607 10626 10629 10641 10648 10660 10671 10678 10685 10696 10705 10710 10718 10730 10734 10740 10748 10754 10758 10766 10771 10774 10781 10782 10786 10784 10786 10793 10792 10794 10791 10792 10784 10784
10399 10423 10444 10469 10503 10519 10541 10542 10559 10576 10592 10601 10615 10620 10647 10646 10661 10673 10678 10686 10694 10700 10707 10716 10724 10729 10734 10739 10744 10752 10755 10759 10760 10766 10767 10768 10773 10775 10774 10774 10769 10773 10765 10762
10371 10399 10422 10447 10471 10499 10512 10520 10537 10553 10570 10581 10604 10626 10628 10645 10659 10661 10668 10675 10682 10689 10698 10703 10712 10719 10721 10724 10731 10737 10737 10743 10747 10752 10753 10756 10756 10758 10754 10755 10753 10750 10748 10744
10364 10385 10405 10429 10456 10473 10485 10500 10513 10526 10538 10593 10613 10613 10624 10629 10641 10652 10659 10666 10675 10683 10685 10693 10700 10706 10711 10718 10721 10723 10729 10734 10734 10739 10738 10739 10738 10741 10738 10735 10733 10732 10732 10731
10355 10369 10390 10414 10433 10454 10475 10491 10507 10544 10591 10601 10594 10605 10595 10611 10636 10646 10650 10662 10671 10672 10678 10684 10693 10695 10702 10708 10712 10713 10717 10719 10723 10724 10724 10725 10724 10724 10723 10720 10718 10718 10715 10710
10348 10362 10377 10398 10425 10446 10463 10471 10530 10544 10553 10552 10569 10567 10569 10613 10624 10631 10650 10655 10651 10666 10672 10675 10681 10687 10692 10697 10699 10702 10705 10707 10709 10710 10710 10711 10711 10710 10708 10705 10704 10701 10697 10693
10342 10355 10370 10388 10408 10425 10448 10494 10491 10512 10527 10536 10548 10559 10585 10607 10616 10623 10636 10641 10648 10654 10661 10667 10671 10676 10682 10685 10688 10691 10693 10694 10694 10696 10696 10696 10695 10693 10691 10689 10687 10682 10678 10674
10339 10349 10360 10376 10397 10418 10444 10455 10476 10503 10517 10531 10535 10562 10575 10593 10602 10609 10620 10629 10636 10645 10651 10655 10659 10665 10672 10676 10677 10679 10682 10682 10684 10684 10683 10683 10680 10678 10677 10674 10671 10666 10662 10656
10339 10348 10357 10368 10389 10409 10429 10456 10477 10491 10511 10518 10523 10543 10561 10586 10597 10600 10608 10616 10626 10632 10638 10644 10649 10655 10661 10664 10666 10669 10671 10672 10672 10672 10672 10670 10669 10667 10663 10660 10657 10653 10648 10642
10341 10348 10356 10368 10384 10397 10414 10441 10455 10481 10499 10505 10518 10536 10561 10579 10582 10591 10600 10609 10615 10622 10628 10634 10640 10645 10649 10653 10656 10658 10660 10660 10661 10660 10660 10658 10656 10654 10652 10648 10644 10640 10635 10630
10343 10347 10356 10365 10376 10396 10418 10432 10449 10472 10484 10494 10505 10534 10556 10562 10571 10581 10590 10597 10605 10611 10618 10625 10631 10635 10640 10643 10645 10647 10648 10648 10649 10648 10647 10646 10644 10642 10639 10636 10632 10628 10623 10618
10347 10350 10355 10364 10373 10388 10404 10419 10446 10460 10481 10496 10504 10528 10538 10550 10560 10568 10576 10584 10592 10600 10607 10614 10619 10623 10627 10631 10634 10636 10636 10637 10636 10636 10635 10634 10632 10630 10627 10624 10620 10615 10612 10609
10348 10353 10358 10366 10374 10385 10399 10416 10430 10452 10464 10474 10504 10511 10527 10537 10548 10555 10564 10572 10581 10591 10598 10603 10610 10614 10617 10620 10622 10624 10625 10625 10625 10624 10623 10622 10620 10617 10615 10612 10609 10605 10602 10598
10359 10361 10361 10366 10379 10388 10399 10411 10428 10444 10458 10477 10500 10512 10520 10529 10539 10546 10554 10563 10573 10582 10590 10596 10600 10603 10607 10610 10611 10611 10612 10613 10613 10613 10612 10610 10608 10607 10603 10601 10598 10595 10591 10588
10366 10371 10371 10373 10377 10383 10394 10406 10423 10440 10462 10476 10489 10497 10506 10517 10527 10537 10547 10558 10566 10574 10580 10585 10588 10591 10594 10596 10597 10598 10600 10602 10602 10600 10599 10598 10597 10594 10592 10590 10587 10584 10581 10578
10379 10380 10379 10380 10384 10387 10395 10408 10424 10445 10469 10480 10478 10487 10503 10512 10524 10533 10543 10551 10557 10563 10568 10572 10577 10580 10583 10584 10586 10587 10589 10589 10588 10588 10587 10586 10585 10583 10581 10579 10577 10573 10570 10566
10379 10384 10384 10386 10391 10395 10402 10413 10426 10438 10444 10460 10470 10481 10494 10504 10515 10524 10532 10537 10542 10549 10556 10561 10566 10570 10572 10573 10574 10577 10577 10577 10577 10577 10576 10575 10573 10571 10570 10569 10565 10563 10559 10556
10384 10392 10392 10394 10394 10401 10404 10413 10424 10437 10446 10454 10462 10470 10481 10492 10502 10511 10519 10526 10533 10540 10546 10552 10556 10558 10559 10561 10563 10565 10566 10566 10567 10567 10566 10564 10562 10561 10560 10558 10556 10552 10549 10546
10391 10395 10397 10397 10400 10403 10407 10414 10425 10434 10442 10449 10457 10468 10478 10482 10494 10503 10509 10519 10525 10531 10537 10542 10545 10546 10548 10550 10553 10554 10555 10555 10556 10556 10555 10554 10552 10552 10550 10548 10546 10543 10540 10536
10385 10391 10394 10398 10400 10405 10412 10419 10426 10433 10439 10447 10455 10461 10469 10481 10489 10497 10503 10509 10514 10521 10527 10532 10533 10536 10538 10540 10543 10544 10545 10545 10546 10546 10545 10543 10541 10540 10540 10537 10536 10533 10530 10526
10389 10393 10396 10400 10405 10410 10415 10421 10427 10434 10441 10449 10456 10463 10470 10477 10484 10489 10495 10501 10507 10513 10517 10520 10524 10526 10529 10532 10534 10534 10535 10536 10535 10535 10534 10532 10530 10530 10528 10525 10525 10521 10517 10514
10392 10397 10401 10406 10410 10414 10419 10424 10430 10436 10442 10449 10455 10462 10468 10475 10480 10484 10491 10496 10501 10505 10509 10512 10515 10517 10520 10522 10524 10525 10526 10526 10524 10524 10523 10522 10520 10519 10516 10513 10510 10507 10503 10499
10397 10401 10405 10410 10414 10418 10423 10428 10433 10439 10444 10450 10455 10461 10466 10471 10476 10482 10486 10490 10495 10498 10502 10504 10506 10509 10511 10512 10513 10514 10515 10515 10514 10513 10512 10510 10509 10506 10503 10499 10495 10493 10489 10484